Time,TemperatureF,DewpointF,PressureIn,WindDirection,WindDirectionDegrees,WindSpeedMPH,WindSpeedGustMPH,Humidity,HourlyPrecipIn,Conditions,Clouds,dailyrainin,SolarRadiationWatts/m^2,SoftwareType,DateUTC
2013-03-27 00:13:00,60.1,15.0,29.95,ESE,112,5.0,11.0,17,0.00,,,0.00,0,weatherlink.com 1.10,2013-03-27 06:13:00,
2013-03-27 00:28:00,59.4,16.0,29.95,SE,133,5.0,10.0,18,0.00,,,0.00,0,weatherlink.com 1.10,2013-03-27 06:28:00,
2013-03-27 00:43:00,59.5,16.0,29.95,SE,126,4.0,10.0,18,0.00,,,0.00,0,weatherlink.com 1.10,2013-03-27 06:43:00,
2013-03-27 00:58:00,59.3,16.0,29.95,SE,128,5.0,12.0,18,0.00,,,0.00,0,weatherlink.com 1.10,2013-03-27 06:58:00,
2013-03-27 01:13:00,59.4,16.0,29.95,SE,128,9.0,13.0,18,0.00,,,0.00,0,weatherlink.com 1.10,2013-03-27 07:13:00,
2013-03-27 01:28:00,59.2,17.0,29.94,SE,134,8.0,12.0,19,0.00,,,0.00,0,weatherlink.com 1.10,2013-03-27 07:28:00,
2013-03-27 01:43:00,59.3,17.0,29.94,SE,132,8.0,12.0,19,0.00,,,0.00,0,weatherlink.com 1.10,2013-03-27 07:43:00,
2013-03-27 01:58:00,59.5,17.0,29.94,SE,134,8.0,11.0,19,0.00,,,0.00,0,weatherlink.com 1.10,2013-03-27 07:58:00,
2013-03-27 02:13:00,59.4,17.0,29.93,SE,136,6.0,13.0,19,0.00,,,0.00,0,weatherlink.com 1.10,2013-03-27 08:13:00,
2013-03-27 02:28:00,59.1,17.0,29.93,SE,134,4.0,13.0,19,0.00,,,0.00,0,weatherlink.com 1.10,2013-03-27 08:28:00,
2013-03-27 02:43:00,59.1,17.0,29.92,SE,131,9.0,13.0,19,0.00,,,0.00,0,weatherlink.com 1.10,2013-03-27 08:43:00,
2013-03-27 02:59:00,58.7,16.0,29.92,SE,132,4.0,9.0,19,0.00,,,0.00,0,weatherlink.com 1.10,2013-03-27 08:59:00,
2013-03-27 03:14:00,58.2,17.0,29.92,SE,131,6.0,12.0,20,0.00,,,0.00,0,weatherlink.com 1.10,2013-03-27 09:14:00,
2013-03-27 03:29:00,57.6,17.0,29.91,SE,128,3.0,9.0,20,0.00,,,0.00,0,weatherlink.com 1.10,2013-03-27 09:29:00,
2013-03-27 03:44:00,58.0,18.0,29.91,SE,135,3.0,12.0,21,0.00,,,0.00,0,weatherlink.com 1.10,2013-03-27 09:44:00,
2013-03-27 03:59:00,57.8,18.0,29.90,SE,130,5.0,10.0,21,0.00,,,0.00,0,weatherlink.com 1.10,2013-03-27 09:59:00,
2013-03-27 04:14:00,58.0,18.0,29.90,SE,129,7.0,11.0,21,0.00,,,0.00,0,weatherlink.com 1.10,2013-03-27 10:14:00,
2013-03-27 04:29:00,58.0,18.0,29.90,SE,143,7.0,11.0,21,0.00,,,0.00,0,weatherlink.com 1.10,2013-03-27 10:29:00,
2013-03-27 04:44:00,57.8,18.0,29.90,SE,137,5.0,10.0,21,0.00,,,0.00,0,weatherlink.com 1.10,2013-03-27 10:44:00,
2013-03-27 04:59:00,57.8,18.0,29.90,SE,134,6.0,12.0,21,0.00,,,0.00,0,weatherlink.com 1.10,2013-03-27 10:59:00,
2013-03-27 05:14:00,57.3,17.0,29.90,SE,131,5.0,10.0,21,0.00,,,0.00,0,weatherlink.com 1.10,2013-03-27 11:14:00,
2013-03-27 05:29:00,57.1,17.0,29.90,SE,134,7.0,14.0,21,0.00,,,0.00,0,weatherlink.com 1.10,2013-03-27 11:29:00,
2013-03-27 05:44:00,57.1,18.0,29.91,SE,140,5.0,11.0,22,0.00,,,0.00,0,weatherlink.com 1.10,2013-03-27 11:44:00,
2013-03-27 05:59:00,56.5,18.0,29.91,SE,136,3.0,11.0,22,0.00,,,0.00,0,weatherlink.com 1.10,2013-03-27 11:59:00,
2013-03-27 06:14:00,56.6,18.0,29.91,SE,132,3.0,15.0,22,0.00,,,0.00,0,weatherlink.com 1.10,2013-03-27 12:14:00,
2013-03-27 06:29:00,56.6,18.0,29.92,SE,135,4.0,10.0,22,0.00,,,0.00,0,weatherlink.com 1.10,2013-03-27 12:29:00,
2013-03-27 06:44:00,56.2,18.0,29.93,SE,139,5.0,10.0,22,0.00,,,0.00,0,weatherlink.com 1.10,2013-03-27 12:44:00,
2013-03-27 06:59:00,55.9,18.0,29.93,SE,136,9.0,9.0,23,0.00,,,0.00,0,weatherlink.com 1.10,2013-03-27 12:59:00,
2013-03-27 07:14:00,55.7,18.0,29.93,SE,133,4.0,10.0,23,0.00,,,0.00,18,weatherlink.com 1.10,2013-03-27 13:14:00,
2013-03-27 07:29:00,56.0,18.0,29.94,SE,140,6.0,11.0,23,0.00,,,0.00,40,weatherlink.com 1.10,2013-03-27 13:29:00,
2013-03-27 07:44:00,56.7,18.0,29.94,SE,143,6.0,12.0,22,0.00,,,0.00,69,weatherlink.com 1.10,2013-03-27 13:44:00,
2013-03-27 07:59:00,57.5,19.0,29.94,SE,140,5.0,12.0,22,0.00,,,0.00,105,weatherlink.com 1.10,2013-03-27 13:59:00,
2013-03-27 08:14:00,57.9,19.0,29.95,SSE,153,7.0,12.0,22,0.00,,,0.00,125,weatherlink.com 1.10,2013-03-27 14:14:00,
2013-03-27 08:29:00,58.5,18.0,29.95,SE,140,5.0,10.0,21,0.00,,,0.00,156,weatherlink.com 1.10,2013-03-27 14:29:00,
2013-03-27 08:44:00,59.3,18.0,29.95,SE,142,4.0,9.0,20,0.00,,,0.00,221,weatherlink.com 1.10,2013-03-27 14:44:00,
2013-03-27 08:59:00,60.2,19.0,29.95,SE,144,4.0,9.0,20,0.00,,,0.00,244,weatherlink.com 1.10,2013-03-27 14:59:00,
2013-03-27 09:14:00,60.4,19.0,29.96,SSE,163,8.0,10.0,20,0.00,,,0.00,274,weatherlink.com 1.10,2013-03-27 15:14:00,
2013-03-27 09:29:00,60.7,18.0,29.96,SSE,164,7.0,10.0,19,0.00,,,0.00,264,weatherlink.com 1.10,2013-03-27 15:29:00,
2013-03-27 09:44:00,60.7,18.0,29.96,SSE,164,7.0,9.0,19,0.00,,,0.00,288,weatherlink.com 1.10,2013-03-27 15:44:00,
2013-03-27 09:59:00,61.4,19.0,29.96,SSE,165,6.0,9.0,19,0.00,,,0.00,302,weatherlink.com 1.10,2013-03-27 15:59:00,
2013-03-27 10:15:00,61.9,19.0,29.97,South,170,7.0,10.0,19,0.00,,,0.00,371,weatherlink.com 1.10,2013-03-27 16:15:00,
2013-03-27 10:30:00,62.6,18.0,29.97,South,177,10.0,11.0,18,0.00,,,0.00,487,weatherlink.com 1.10,2013-03-27 16:30:00,
2013-03-27 10:45:00,63.1,19.0,29.97,South,182,8.0,11.0,18,0.00,,,0.00,506,weatherlink.com 1.10,2013-03-27 16:45:00,
2013-03-27 11:00:00,62.9,19.0,29.97,South,176,4.0,11.0,18,0.00,,,0.00,390,weatherlink.com 1.10,2013-03-27 17:00:00,
2013-03-27 11:15:00,63.6,18.0,29.97,South,178,4.0,10.0,17,0.00,,,0.00,443,weatherlink.com 1.10,2013-03-27 17:15:00,
2013-03-27 11:30:00,63.9,18.0,29.97,South,178,7.0,9.0,17,0.00,,,0.00,476,weatherlink.com 1.10,2013-03-27 17:30:00,
2013-03-27 11:45:00,64.1,18.0,29.96,South,184,7.0,9.0,17,0.00,,,0.00,457,weatherlink.com 1.10,2013-03-27 17:45:00,
2013-03-27 12:00:00,64.7,17.0,29.96,South,175,2.0,8.0,16,0.00,,,0.00,524,weatherlink.com 1.10,2013-03-27 18:00:00,
2013-03-27 12:15:00,65.4,16.0,29.96,South,186,4.0,9.0,15,0.00,,,0.00,538,weatherlink.com 1.10,2013-03-27 18:15:00,
2013-03-27 12:30:00,66.2,19.0,29.95,SSE,167,5.0,7.0,16,0.00,,,0.00,786,weatherlink.com 1.10,2013-03-27 18:30:00,
2013-03-27 12:45:00,66.6,17.0,29.95,South,171,2.0,9.0,15,0.00,,,0.00,506,weatherlink.com 1.10,2013-03-27 18:45:00,
2013-03-27 13:00:00,66.9,16.0,29.95,South,188,5.0,10.0,14,0.00,,,0.00,923,weatherlink.com 1.10,2013-03-27 19:00:00,
2013-03-27 13:15:00,68.2,15.0,29.94,South,191,4.0,10.0,13,0.00,,,0.00,877,weatherlink.com 1.10,2013-03-27 19:15:00,
2013-03-27 13:30:00,69.2,16.0,29.93,SSW,196,4.0,12.0,13,0.00,,,0.00,974,weatherlink.com 1.10,2013-03-27 19:30:00,
2013-03-27 13:45:00,70.1,17.0,29.93,SSW,208,1.0,7.0,13,0.00,,,0.00,777,weatherlink.com 1.10,2013-03-27 19:45:00,
2013-03-27 14:00:00,70.1,17.0,29.92,SSW,208,0.0,4.0,13,0.00,,,0.00,580,weatherlink.com 1.10,2013-03-27 20:00:00,
2013-03-27 14:15:00,72.0,17.0,29.91,SSW,210,2.0,8.0,12,0.00,,,0.00,893,weatherlink.com 1.10,2013-03-27 20:15:00,
2013-03-27 14:30:00,71.5,16.0,29.91,SSW,199,5.0,10.0,12,0.00,,,0.00,510,weatherlink.com 1.10,2013-03-27 20:30:00,
2013-03-27 14:45:00,72.5,17.0,29.90,SW,226,5.0,14.0,12,0.00,,,0.00,670,weatherlink.com 1.10,2013-03-27 20:45:00,
2013-03-27 15:00:00,71.0,18.0,29.89,SW,215,2.0,11.0,13,0.00,,,0.00,645,weatherlink.com 1.10,2013-03-27 21:00:00,
2013-03-27 15:15:00,72.4,19.0,29.88,SW,217,14.0,16.0,13,0.00,,,0.00,315,weatherlink.com 1.10,2013-03-27 21:15:00,
2013-03-27 15:30:00,72.4,19.0,29.88,WNW,286,4.0,11.0,13,0.00,,,0.00,947,weatherlink.com 1.10,2013-03-27 21:30:00,
2013-03-27 15:45:00,72.6,17.0,29.87,WNW,285,7.0,16.0,12,0.00,,,0.00,710,weatherlink.com 1.10,2013-03-27 21:45:00,
2013-03-27 16:00:00,73.7,20.0,29.86,West,266,5.0,16.0,13,0.00,,,0.00,816,weatherlink.com 1.10,2013-03-27 22:00:00,
2013-03-27 16:15:00,74.4,20.0,29.86,West,264,12.0,19.0,13,0.00,,,0.00,610,weatherlink.com 1.10,2013-03-27 22:15:00,
2013-03-27 16:30:00,74.5,19.0,29.85,SW,231,5.0,19.0,12,0.00,,,0.00,610,weatherlink.com 1.10,2013-03-27 22:30:00,
2013-03-27 16:45:00,73.6,20.0,29.85,West,270,6.0,16.0,13,0.00,,,0.00,172,weatherlink.com 1.10,2013-03-27 22:45:00,
2013-03-27 17:00:00,74.4,20.0,29.85,West,264,6.0,13.0,13,0.00,,,0.00,571,weatherlink.com 1.10,2013-03-27 23:00:00,
2013-03-27 17:15:00,73.8,20.0,29.84,West,266,8.0,17.0,13,0.00,,,0.00,436,weatherlink.com 1.10,2013-03-27 23:15:00,
2013-03-27 17:31:00,74.3,20.0,29.84,WNW,291,9.0,13.0,13,0.00,,,0.00,381,weatherlink.com 1.10,2013-03-27 23:31:00,
2013-03-27 17:46:00,74.1,20.0,29.84,WSW,238,5.0,12.0,13,0.00,,,0.00,153,weatherlink.com 1.10,2013-03-27 23:46:00,
2013-03-27 18:01:00,72.9,19.0,29.84,SW,224,8.0,14.0,13,0.00,,,0.00,91,weatherlink.com 1.10,2013-03-28 00:01:00,
2013-03-27 18:16:00,71.9,18.0,29.84,WNW,285,5.0,9.0,13,0.00,,,0.00,63,weatherlink.com 1.10,2013-03-28 00:16:00,
2013-03-27 18:31:00,71.5,18.0,29.84,WNW,282,5.0,8.0,13,0.00,,,0.00,42,weatherlink.com 1.10,2013-03-28 00:31:00,
2013-03-27 18:46:00,71.2,18.0,29.84,WNW,283,3.0,7.0,13,0.00,,,0.00,40,weatherlink.com 1.10,2013-03-28 00:46:00,
2013-03-27 19:01:00,71.1,19.0,29.84,WNW,283,4.0,5.0,14,0.00,,,0.00,25,weatherlink.com 1.10,2013-03-28 01:01:00,
2013-03-27 19:16:00,70.0,19.0,29.84,WNW,283,1.0,3.0,14,0.00,,,0.00,7,weatherlink.com 1.10,2013-03-28 01:16:00,
2013-03-27 19:31:00,68.8,18.0,29.84,WNW,283,1.0,1.0,14,0.00,,,0.00,0,weatherlink.com 1.10,2013-03-28 01:31:00,
2013-03-27 19:46:00,66.5,17.0,29.84,WNW,283,3.0,4.0,15,0.00,,,0.00,0,weatherlink.com 1.10,2013-03-28 01:46:00,
2013-03-27 20:01:00,66.3,17.0,29.85,WNW,283,4.0,5.0,15,0.00,,,0.00,0,weatherlink.com 1.10,2013-03-28 02:01:00,
2013-03-27 20:16:00,65.8,17.0,29.85,WNW,294,3.0,5.0,15,0.00,,,0.00,0,weatherlink.com 1.10,2013-03-28 02:16:00,
2013-03-27 20:31:00,65.8,17.0,29.86,NW,304,4.0,4.0,15,0.00,,,0.00,0,weatherlink.com 1.10,2013-03-28 02:31:00,
2013-03-27 20:46:00,65.5,18.0,29.86,NW,308,2.0,4.0,16,0.00,,,0.00,0,weatherlink.com 1.10,2013-03-28 02:46:00,
2013-03-27 21:01:00,65.1,18.0,29.86,NW,315,3.0,5.0,16,0.00,,,0.00,0,weatherlink.com 1.10,2013-03-28 03:01:00,
2013-03-27 21:16:00,65.0,19.0,29.87,NW,319,5.0,5.0,17,0.00,,,0.00,0,weatherlink.com 1.10,2013-03-28 03:16:00,
2013-03-27 21:31:00,65.1,19.0,29.87,NNE,18,5.0,6.0,17,0.00,,,0.00,0,weatherlink.com 1.10,2013-03-28 03:31:00,
2013-03-27 21:46:00,65.2,19.0,29.87,NNE,27,5.0,7.0,17,0.00,,,0.00,0,weatherlink.com 1.10,2013-03-28 03:46:00,
2013-03-27 22:16:00,64.3,18.0,29.88,NNE,27,1.0,5.0,17,0.00,,,0.00,0,weatherlink.com 1.10,2013-03-28 04:16:00,
2013-03-27 22:46:00,62.7,17.0,29.89,NNE,27,0.0,2.0,17,0.00,,,0.00,0,weatherlink.com 1.10,2013-03-28 04:46:00,
2013-03-27 23:01:00,61.8,18.0,29.89,NNE,27,0.0,3.0,18,0.00,,,0.00,0,weatherlink.com 1.10,2013-03-28 05:01:00,
2013-03-27 23:16:00,61.3,17.0,29.89,NNE,27,1.0,1.0,18,0.00,,,0.00,0,weatherlink.com 1.10,2013-03-28 05:16:00,
2013-03-27 23:31:00,63.1,17.0,29.89,NNE,27,2.0,2.0,17,0.00,,,0.00,0,weatherlink.com 1.10,2013-03-28 05:31:00,
2013-03-27 23:46:00,64.3,18.0,29.89,NNE,27,1.0,3.0,17,0.00,,,0.00,0,weatherlink.com 1.10,2013-03-28 05:46:00,